sat.trackr.live / text

‹ back to catalog

COSMOS 2483 (RODNIK-S 5)

NORAD 39058 · 2013-001B

PAYLOAD ACTIVE UNKNOWN

§ Identity

Operator
Country
CIS
Launch date
2013-01-15
Launch site
PLMSC
Launch vehicle
Mass (kg)
RCS (m²)
2.23

External: N2YO · Heavens-Above · Gunter

§ Orbital elements

Epoch: 2026-05-25T04:41:30.297984Z

Period
115.75 min
Inclination
82.5002°
Eccentricity
0.0017602
Mean motion
12.44024910 rev/d
Perigee alt
1,475.7 km
Apogee alt
1,503.4 km
Semi-major
7,867.7 km
B*
8.2436e-4
RAAN
229.2331°
Arg perigee
66.0863°
Mean anomaly
294.2058°
Rev number
59,873

§ Raw data

COSMOS 2483 (RODNIK-S 5)1 39058U 13001B   26145.19548956  .00000126  00000+0  82436-3 0  99992 39058  82.5002 229.2331 0017602  66.0863 294.2058 12.44024910598730

JSON: /api/v1/satellites/39058 · /tle

For live sub-satellite position, see the globe view (requires WebGL).

§ Visibility from observer

Set your observer location to see the next 7 days of passes ≥ 10°. The values pass through the URL so the page stays shareable.

No JS? Fill the form by hand. The geolocation button needs JavaScript.